Voltar ao catálogo

LEMUR 2 ARIANNA

AtivoCiênciaSSO
NORAD 62699·PAYLOAD·🇺🇸 United States

Lançado Jan 14, 2025 de Vandenberg Space Force Base

Loading…

Próximas Passagens (próximas 24 horas)

TLE

AtualizadoSource: Space-Track

Época: Sep 14, 2026, 03:59 UTC

1 62699U 25009CU  26257.16620650  .00005612  00000-0  41525-3 0  9990
2 62699  97.6839 337.8623 0002887 148.9829 211.1568 15.03563449 90928

Acompanhe LEMUR 2 ARIANNA em tempo real com AllMySat

Download on the App Store